Home > Weather > Wilmington > Past weeks

Flag for USA Weather for the Past 2 Weeks in Wilmington, Delaware, USA

Now
59 °F

Light rain. Fog.


Feels Like: 59 °F
Forecast: 55 / 64 °F
Wind: 5 mph from Northeast

Location: New Castle County Airport

Current Time: May 3, 2016 at 1:07:44 AM

Latest Report: May 2, 2016 at 11:51 PM


Visibility: 4 mi

Pressure: 29.90 "Hg

Humidity: 93%

Dew Point: 57 °F

Location of WilmingtonLocation

Historic Weather in Wilmington — Graph

°F

Wilmington Temperature Yesterday

Maximum temperature yesterday: 64 °F (at 5:51 PM)
Minimum temperature yesterday: 48 °F (at 5:51 AM)
Average temperature yesterday: 55 °F

High & Low Weather Summary for the Past Weeks

 TemperatureHumidityPressure
High85 °F (Apr 26, 3:51 PM)97% (Apr 26, 6:51 AM)30.31 "Hg (Apr 26, 6:51 AM)
Low42 °F (Apr 20, 6:51 AM)18% (Apr 18, 3:51 PM)29.61 "Hg (Apr 26, 4:51 PM)
Average57 °F65%30.03 "Hg
* Reported Apr 17 10:51 PM — May 2 10:51 PM, Wilmington, Weather by CustomWeather, © 2016

Note: Actual official high and low records may vary slightly from our data, if they occured in-between our weather recording intervals... More about our weather records

Advertising

Wilmington Weather History for the Previous 24 Hours

Scroll right to see more
 ConditionsComfort  
Time TempWeatherWind HumidityBarometerVisibility
10:51 PM
Mon, May 2
60 °FRain. Fog.6 mph86%29.91 "Hg4 mi
9:58 PM61 °FThundershowers. Passing clouds.10 mph83%29.90 "Hg7 mi
8:58 PM62 °FPassing clouds.10 mph80%29.91 "Hg10 mi
7:51 PM62 °FSunny.8 mph80%29.90 "Hg9 mi
6:51 PM64 °FSunny.7 mph78%29.88 "Hg10 mi
5:51 PM64 °FPassing clouds.No wind78%29.88 "Hg10 mi
4:51 PM63 °FOvercast.3 mph81%29.90 "Hg10 mi
3:51 PM61 °FOvercast.3 mph81%29.90 "Hg8 mi
2:51 PM58 °FLow clouds.No wind87%29.92 "Hg7 mi
1:51 PM56 °FFog.No wind93%29.94 "Hg4 mi
12:51 PM55 °FFog.6 mph93%29.94 "Hg6 mi
11:51 AM54 °FFog.5 mph93%29.96 "Hg5 mi
10:51 AM52 °FFog.6 mph93%29.96 "Hg5 mi
9:48 AM50 °FFog.6 mph96%29.99 "Hg3 mi
8:51 AM49 °FFog.3 mph93%30.02 "Hg1 mi
8:04 AM49 °FFog.5 mph97%30.00 "Hg2 mi
7:51 AM49 °FFog.6 mph93%29.99 "Hg2 mi
6:51 AM48 °FLow clouds.6 mph96%30.00 "Hg9 mi
5:51 AM48 °FLow clouds.7 mph96%29.99 "Hg7 mi
4:51 AM49 °FLight rain. Fog.6 mph93%29.98 "Hg4 mi
3:51 AM49 °FLight rain. Fog.8 mph97%30.00 "Hg5 mi
2:51 AM50 °FFog.9 mph93%30.00 "Hg5 mi
1:51 AM51 °FFog.9 mph92%30.02 "Hg6 mi
Weather by CustomWeather, © 2016

See weather overviewHow to use our weather pages